Regional Weather Roundup
Issued by NWS Jackson, KY

Home | Current Version | Previous Version | Text Only | Print | Product List | Glossary Off
Versions: 1 2 3 4 5 6 7 8 9 10 11 12 13 14 15 16 17 18 19 20 21 22 23 24 25 26 27 28 29 30 31 32 33 34 35 36 37 38 39 40 41 42 43 44 45 46 47 48 49 50

000
ASUS43 KJKL 291310
RWRJKL

EAST KENTUCKY HOURLY WEATHER ROUNDUP
NATIONAL WEATHER SERVICE JACKSON KY
900 AM EDT FRI MAY 29 2015

NOTE: "FAIR" INDICATES FEW OR NO CLOUDS BELOW 12,000 FEET WITH
NO SIGNIFICANT WEATHER AND/OR OBSTRUCTIONS TO VISIBILITY.

* THESE REPORTS ARE NOT UNDER NWS QUALITY CONTROL AND MAY NOT
  REPORT WEATHER SUCH AS PRECIPITATION AND FOG.

KYZ079-080-083-085-087-088-110-112-115-119-120-291400
...EASTERN KENTUCKY...

CITY           SKY/WX    TMP DP  RH WIND       PRES   REMARKS
JACKSON        PTSUNNY   73  65  75 CALM      30.23R
LONDON         MOSUNNY   69  63  81 SE5       30.22R
SOMERSET*      CLOUDY    64  64 100 CALM      30.23R
MONTICELLO*    SUNNY     72  68  87 SE5       30.24R
MIDDLESBORO*   PTSUNNY   67  65  96 CALM      30.25R
HARLAN APT*    PTSUNNY   64  64 100 CALM      30.26R
BLACK MTN*       N/A     64  61  88 SW1         N/A
PIKEVILLE APT* SUNNY     70  63  78 SE5       30.24R
BIG SANDY*     MOSUNNY   71  64  78 S5        30.23R
MOREHEAD APT*  CLOUDY    72  68  88 S5        30.23R
$$

KYZ035-036-041-042-044-050-067-078-099-291400
...CENTRAL KENTUCKY...

CITY           SKY/WX    TMP DP  RH WIND       PRES   REMARKS
MT STERLING*   PTSUNNY   70  66  88 SW3       30.22R
FLEMING/MASON* MOSUNNY   73  66  78 S8        30.20S
DANVILLE*      CLOUDY    66  64  94 S6        30.21S
RICHMOND*      CLOUDY    70  64  83 S5        30.20S
LEXINGTON      CLOUDY    70  67  90 S9        30.19R
FRANKFORT      MOSUNNY   68  65  90 S10       30.16S
$$

KYZ091>093-OHZ055-061-077-WVZ005-015-034-035-042-291400
...SOUTHERN OHIO/WEST VIRGINIA...

CITY           SKY/WX    TMP DP  RH WIND       PRES   REMARKS
COVINGTON      PTSUNNY   70  67  90 S7        30.15F
COLUMBUS       CLOUDY    72  62  71 S7        30.17R
DAYTON         CLOUDY    71  68  90 SE7       30.16S
WILMINGTON     MOSUNNY   74  65  73 S12       30.16S
HUNTINGTON     PTSUNNY   70  66  87 S3        30.19S
CHARLESTON     PTSUNNY   70  65  84 CALM      30.21R
PINEVILLE*     MOSUNNY   66  65  94 MISG      30.31S
BECKLEY        PTSUNNY   69  61  75 SE10G17   30.30R
BLUEFIELD      CLOUDY    70  61  73 CALM      30.32R
$$

VAZ002-007-008-TNZ017-027-036-066-071-291400
...SOUTHWEST VIRGINIA/EAST TENNESSEE...

CITY           SKY/WX    TMP DP  RH WIND       PRES   REMARKS
WISE*          CLOUDY    68  63  83 S3        30.31R
JONESVILLE*    MOSUNNY   64  64 100 CALM      30.28R
ABINGDON*      PTSUNNY   71  63  75 SE7       30.28S
BRISTOL        PTSUNNY   68  64  87 CALM      30.27R
KNOXVILLE      PTSUNNY   71  65  81 CALM      30.22R
OAK RIDGE      MOSUNNY   71  65  81 CALM      30.24R
CROSSVILLE     CLOUDY    67  63  87 VRB3      30.24S
NASHVILLE      CLOUDY    70  66  87 S8        30.17R
$$

...KEY TO REMARKS...
VSB - VISIBILITY IN MILES
WCI - WIND CHILL INDEX
HX  - HEAT INDEX

$$



USA.gov is the U.S. government's official web portal to all federal, state and local government web resources and services.